THOR ABLESTAR DEB, 1521

Orbit data source: Space-Track

THOR ABLESTAR DEB, 1521 is space debris in LEO originally from a launch on Fri, 13 Aug 1965 UTC launched from the Air Force Western Test Range (AFWTR). Debris objects in space refer to the collection of defunct objects orbiting the Earth. Examples of debris include non-operational satellites, rocket bodies, and fragments generated from explosions, collisions, or faulty payload assembly.

Loading next visibility...
Identifier
1521, 1965-065K
Orbit
LEO
Country
Flag of USUS
Related business
Manufacturer
NRL
Mission
Spacecraft
Bus & Motor
Unknown
Mass
Unknown
Launch date (UTC)
1965-08-13 (61 years ago)
Launch vehicle
Unknown
Launch site
Air Force Western Test Range (AFWTR)
Object type
Payload
Rocket body
Debris
Shape & HBR
Unknown shape, 0.2 m
Radar Cross Section
Medium (>0.1 m² and <1 m²)

Expand to show TLE details & history
Last TLE update: 14 hours ago

TLE from 14 hours ago
0 THOR ABLESTAR DEB
1 01521U 65065K   26255.89697697  .00000019  00000-0  20016-4 0  9995
2 01521  90.0280 210.5139 0070207  18.3867  45.1587 13.33287752971097
Epoch: 2026-09-12T21:31Z
TLE epoch observation values (Epoch: 2026-09-12T21:31:38.810Z)
Latitude
64.20245°
Longitude
-104.35483°
Altitude
1,108.521 km
Speed
7.322 km/s
True Right ascension
14h 01m 49s
True Declination
64° 04' 26"
Sunlit
Object was in daylight at epoch
Visualization orbit readout
Latitude
Unknown
Longitude
Unknown
Altitude
Unknown
Speed
Unknown
Apparent Right ascension
Unknown
Apparent Declination
Unknown
Sunlit
N/A
Visualization observer readout
Local Sidereal Time
03:33:45
Azimuth
Unknown
Elevation
Unknown
Doppler factor
Unknown
Orbital elements
Apogee altitude
1,184.184 km
Perigee altitude
1,078.739 km
Semi-major axis
7,509.599 km
Eccentricity
0.00702
Inclination
90.028°
RAAN
210.5139°
Arg. of periapsis
18.3867°
True anomaly
45.73269°
Mean anomaly
45.1587°
Eccentric anomaly
45.44534°
Mean motion
3.33517 °/min
Orbital period
107.94 mins
BSTAR
0.000020016
Loading maneuver chart data...
Computing Atmospheric mass density...
Loading historical data...
Loading historical data...
Loading historical data...
Loading historical data...
Loading historical data...
Loading historical data...
Loading historical data...

Documentation

Showing up to 5 results
|